Погода в Слуцке

Погода в Слуцке : погода сейчас, прогноз погоды и архив. Всё, что Вы хотите узнать о погоде в Слуцке!

Хотите узнать прогноз погоды в Слуцке? Тогда Вам сюда: Погода в Слуцке

Поиск расширенной информации на нашем сайте:

Другие новости

Новости СМИ2

Главная страница сайта

Новости сайта

02.10.2013

Напоминаем, что на нашем новом сайте вы можете получить высокодетализированные прогнозы погоды по пунктам России, СНГ и мира (включающие важные для авиации метеовеличины, такие как направление и скорость ветра, видимость, явления погоды, количество и форма облачности, нижняя и верхняя граница облачности), а также ознакомиться с разнообразными материалами по авиационной метеорологии и подборкой полезных ссылок на эту тему.

Сайт Метеоцентр.Азия посвящён разработке технологий оптимизации авиаметеорологического обслуживания, включая проектирование и перспективное создание нескольких автоматизированных авиаметеорологических систем:
- система выпуска высокодетальных прогностических карт явлений погоды для нижнего воздушного пространства по России и ближнему зарубежью;
- система верификации прогнозов TAF (выпускаемых синоптиками официальных АМСГ РФ и ближнего зарубежья) и AUTOTAF (выпускаемых сайтом Метеоцентр.Азия) - выявление ошибок, онлайн-сопоставление с фактической погодой METAR, автоматическое внесение коррективов в прогнозы при резком отклонении фактической погоды от прогноза, подсчёт оправдываемости прогнозов по элементам и в целом;
- система обработки, анализа и отображения авиаметеорологической информации для применения провайдерами метеорологической информации.


Погода в Слуцке - сегодня

Время (UTC), дата Ветер
(°,м/с) 
Видим.   Явления Облачность Т
(°С)
Тd
(°С)
f(%) Тe
(°С)
Pmin
(гПа)
dP
(гПа)
Po
(мм)
O2
(г/м3)
Тmin Tmax R s Состояние
почвы
18 27.04.16 130 (ЮВ) 18000 м    ясно 
+11.6 +1.5 50 +13  1013  0.4  745  288    +15.4       
21 27.04.16 110 (В) 13000 м    ясно 
+6.2 +2.6 78 +6  1013.6  0.2  745  293           
00 28.04.16 тихо ()   15000 м    ясно 
+3.9 +1.6 85 +4  1013.8  745  296           
03 28.04.16 130 (ЮВ) 16000 м    ясно 
+2.7 +1.1 89 +3  1013.5  -0.3  745  297           
06 28.04.16 190 (Ю) 20000 м    ясно 
+10.3 +3.4 62 +11  1011.8  -1  744  288  +2.4         
09 28.04.16 180 (Ю) 23000 м    1/0 средняя 
[Ac trans]
+15.9 +5 48 +16  1012  0.4  745  283           
12 28.04.16 300 (СЗ) 10-13{15}  25000 м    9/9 500 м 
[Sc]
+9.7 +4.8 71 +7  1015.7  3.3  747  290           
15 28.04.16 330 (СЗ) 6{13}  23000 м    5/5 1000 м 
[Sc]
+9.6 +2.5 61 +8  1018  2.2  749  291           
18 28.04.16 тихо () {11}  14000 м    ясно 
+7.3 +1.7 68 +7  1019.4  1.2  750  294    +17.6       
21 28.04.16 тихо ()   1100 м    ясно 
+4.3 +0.9 79 +4  1021.2  1.6  751  298           
00 29.04.16 тихо ()   10 км    ясно 
+0.5 -0.1 96 +1  1022.5  1.1  752  302           
03 29.04.16 тихо ()   4000 м  дымка  1/0 
-0.7 -1 98 -1  1023.6  0.8  752  304           
06 29.04.16 080 (В) 12000 м    3/0 верхняя 
[Ci sp]
+7.5 +3 73 +7  1023.8  0.8  753  295  -0.9         
09 29.04.16 060 (СВ) 15000 м    3/0 верхняя 
[Ci sp]
+12 +0.2 44 +12  1023.2  -0.3  753  290           
12 29.04.16 020 (С) 15000 м    4/0 верхняя 
[Ci sp]
+14.6 -1.2 34 +16  1022.6  -0.3  752  288           
15 29.04.16 300 (СЗ) 18000 м    5/0 средняя, верхняя 
[Ac trans|Ci sp]
+15.5 -0.7 33 +16  1022.4  -0.2  752  287           
18 29.04.16 330 (СЗ) 15000 м    1/0 верхняя 
[Ci sp]
+9.8 +4.5 70 +10  1023.1  0.3  752  292    +15.7       
21 29.04.16 010 (С) 15000 м    ясно 
+5.3 +2.6 83 +5  1023.7  0.3  753  297           
00 30.04.16 030 (СВ) 13000 м    ясно 
+4 +2.8 92 +4  1023.9  753  298           
03 30.04.16 040 (СВ) 13000 м    8/0 средняя 
[Ac trans]
+4.8 +3.1 89 +4  1023.4  -0.3  752  297           
06 30.04.16 090 (В) 17000 м    9/0 средняя, верхняя 
[Ac cast|Ci sp]
+9.2 +6.2 81 +9  1023.4  0.3  753  292  +3.8         
09 30.04.16 150 (ЮВ) 20000 м    9/3 600 м средняя, верхняя 
[Cu hum|Ac cast|Ci sp]
+15.2 +6.8 57 +15  1023  753  286           
12 30.04.16 130 (ЮВ) 16000 м    9/5 600 м кучево-дожд., средняя 
[Cb cap|Ac und]
+15.8 +5.6 51 +17  1022.5  -0.5  752  286           
15 30.04.16 100 (В) 15000 м  {ливн. осадки}  9/5 600 м средняя 
[Sc|Ac lent]
+15.7 +5.8 52 +16  1021.7  -0.7  752  286      0.0     
18 30.04.16 060 (СВ) 14000 м  {ливн. осадки}  9/9 660 м 
[Sc]
+14 +7.3 64 +15  1022.2  0.4  752  287    +16.5  0.0     
Время (UTC), дата Ветер
(°,м/с) 
Видим.   Явления Облачность Т
(°С)
Тd
(°С)
f(%) Тe
(°С)
Pmin
(гПа)
dP
(гПа)
Po
(мм)
O2
(г/м3)
Тmin Tmax R s Состояние
почвы

Для получения пояснительной информации подведите курсор к названию столбца.

ПОГОДА в Слуцке - архив

Всё, что Вы хотите узнать о погоде в Слуцке - удобно и подробно!

Выберите нужную дату (начиная с 1 января 2015* года) и нажмите кнопку "Найти".
Будут отображены архивные сводки погоды по пункту Слуцк, начиная с указанной даты.


Отображать данные в формате CSV (для использования в таблицах Excel)


Внимание! Наш архив погоды предназначен исключительно для личного некоммерческого использования в познавательных целях. Если Вам необходимы официальные справки о состоянии погоды (для производственных, юридических, коммерческих и т.п. целей), обращайтесь в органы Росгидромета.

*Примечание: данная дата относится к архиву по метеостанциям СССР (Россия, СНГ, Балтия).
Архив по метеостанциям Зарубежной Европы и Азии (кроме Китая) хранится 10 дней, по другим регионам земного шара (Китай, Африка, Америка, Австралия, Океания) - 1 день.

Слуцк - район местоположения метеостанции


Название, широта, долгота, высота метеостанции:
Слуцк 53°ш. 27.6°д. 162 м над ур. моря [Беларусь]

Дополнительная информация

В oтличие oт бoльшинства пoгoдных сайтoв мы публикуем пoдрoбную метеoинфoрмацию в детальнoм прoфессиoнальнoм фoрмате.

Характеристики температуры и влажнoсти вoздуха измеряются на высoте 2 м в тени вдали oт зданий и деревьев.
Скoрoсть ветра измеряется на высoте 10 м (на урoвне рoста челoвека скoрoсть ветра ниже в 1.5-2 раза). Если метеoстанция нахoдится в гoрoде или в лесу, тo скoрoсть ветра занижена на 2-4 м/с пo сравнению с oткрытым местoм. Скoрoсть ветра над акватoриями крупных рек и oзёр, а также на вершинах хoлмoв на 2-5 м/с выше, чем в oбычных услoвиях.
Атмoсфернoе давление в разных тoчках местнoсти мoжет значительнo oтличаться oт давления на метеoстанции, в зависимoсти oт услoвий рельефа (при пoдъёме на 10 м давление пoнижается примернo на 1 мм рт.ст.).